TimePDT,TemperatureF,Dew PointF,Humidity,Sea Level PressureIn,VisibilityMPH,Wind Direction,Wind SpeedMPH,Gust SpeedMPH,PrecipitationIn,Events,Conditions,WindDirDegrees,DateUTC
12:53 AM,53.1,34.0,48,30.06,10.0,Calm,Calm,-,N/A,,Clear,0,2013-09-28 07:53:00
1:53 AM,48.9,32.0,52,30.06,10.0,ESE,4.6,-,N/A,,Clear,120,2013-09-28 08:53:00
2:53 AM,45.0,30.9,58,30.07,10.0,NNE,3.5,-,N/A,,Clear,30,2013-09-28 09:53:00
3:53 AM,44.1,30.0,58,30.06,10.0,Calm,Calm,-,N/A,,Clear,0,2013-09-28 10:53:00
4:53 AM,44.1,30.0,58,30.06,10.0,Calm,Calm,-,N/A,,Clear,0,2013-09-28 11:53:00
5:53 AM,42.1,30.9,65,30.06,10.0,Calm,Calm,-,N/A,,Clear,0,2013-09-28 12:53:00
6:53 AM,41.0,28.0,60,30.07,10.0,Calm,Calm,-,N/A,,Clear,0,2013-09-28 13:53:00
7:53 AM,46.9,27.0,46,30.09,10.0,Calm,Calm,-,N/A,,Clear,0,2013-09-28 14:53:00
8:53 AM,54.0,30.9,41,30.09,10.0,Calm,Calm,-,N/A,,Clear,0,2013-09-28 15:53:00
9:53 AM,61.0,33.1,35,30.09,10.0,NNW,4.6,-,N/A,,Clear,340,2013-09-28 16:53:00
10:53 AM,68.0,33.1,27,30.08,10.0,WNW,3.5,-,N/A,,Clear,300,2013-09-28 17:53:00
11:53 AM,77.0,32.0,19,30.06,10.0,Calm,Calm,-,N/A,,Clear,0,2013-09-28 18:53:00
12:53 PM,81.0,30.0,16,30.03,10.0,Variable,4.6,-,N/A,,Clear,0,2013-09-28 19:53:00
1:53 PM,84.0,25.0,12,30.01,10.0,East,3.5,-,N/A,,Clear,80,2013-09-28 20:53:00
2:53 PM,86.0,19.9,9,29.99,10.0,NW,3.5,-,N/A,,Clear,320,2013-09-28 21:53:00
3:53 PM,86.0,16.0,7,29.97,10.0,WNW,4.6,-,N/A,,Clear,300,2013-09-28 22:53:00
4:53 PM,87.1,23.0,10,29.96,10.0,WSW,11.5,-,N/A,,Clear,240,2013-09-28 23:53:00
5:53 PM,84.0,21.0,10,29.96,10.0,SW,12.7,-,N/A,,Clear,230,2013-09-29 00:53:00
6:53 PM,78.1,19.0,11,29.98,10.0,SW,5.8,-,N/A,,Clear,220,2013-09-29 01:53:00
7:53 PM,72.0,21.0,15,30.01,10.0,SSE,3.5,-,N/A,,Clear,160,2013-09-29 02:53:00
8:53 PM,63.0,27.0,26,30.05,10.0,NW,5.8,-,N/A,,Clear,310,2013-09-29 03:53:00
9:53 PM,64.0,30.9,29,30.05,10.0,West,5.8,-,N/A,,Clear,270,2013-09-29 04:53:00
10:53 PM,61.0,30.9,32,30.07,10.0,Calm,Calm,-,N/A,,Clear,0,2013-09-29 05:53:00
11:10 PM,62.6,32.0,32,30.08,10.0,NW,3.5,82.9,N/A,,Squalls,310,2013-09-29 06:10:00
11:53 PM,55.0,30.0,38,30.06,10.0,Calm,Calm,-,N/A,,Clear,0,2013-09-29 06:53:00